Airfield :
LOGIN :

Register | Disclaimer

   EN    FR    IT 

 










Legend :    VFR   Marginal VFR   IFR   Intensive IFR   Very Intensive IFR
Visi :
Ceiling :
>= 8 km
>= 3000ft
5 to 8 km
1000 to 3000 ft
1500m to 5 km
500 to 1000 ft
800 to 1500m
200 to 500 ft
< 800m
< 200 ft
Symbols :   Thunderstorms  Fog  Heavy snow  Heavy precipitations  Wind > 20 kt
SIGMETs :     Misc.  Thunderstorms  Icing  Turbulence  Mountain Waves  Volcanic Ashes







- Airport Elevation : 308 ft
- IATA code : POZ


EPPO - Poznan-Lawica

CURRENT METAR :
  • 142230Z 24006KT CAVOK 19/13 Q1012

EXPIRED METARs :
  • 142200Z 24005KT CAVOK 19/13 Q1012
  • 142130Z 23005KT CAVOK 19/13 Q1012
  • 142100Z 23004KT CAVOK 19/13 Q1012
  • 142030Z 23004KT CAVOK 18/12 Q1012
  • 142000Z 22003KT CAVOK 19/12 Q1012

TAF TAF EPPO
Valid from the 14 at 18:00 until the 15 at 18:00 UTC


141730Z 1418/1518 28008KT CAVOK
PROB40
TEMPO 1504/1508 -SHRA SCT013 BKN020CB
TEMPO 1508/1514 BKN030CB
No reported NOTAMs for that airfield.



MET'MAP, your aeronautical weather chart ! - Copyright ORBIFLY December 2007 - Disclaimer

ORBIFLY MET'MAP TEAM :

Programming & Development : Alexandra Zaïnal
Concept & Development : Baudouin d'Aumeries
Co-Development & Prog : Marc-Olivier Méhu
Technical & hardware support : Manuel Goepfert

Contact : metmap@orbifly.com




SOURCES & CREDITS :

   NOAA